This is the latest recevied weather packets stored in our database for station/object K1LVA. If no packets are shown the sender has not sent any weather packets the latest 10 day(s).
| Time | Temp. | Humidity | Pressure | Rain* | Wind** | Luminosity | Snow |
|---|---|---|---|---|---|---|---|
| 1777474507 | 21.11° C | 89% | 1014.5 hPa | 0 mm | - | 391 W/m² | - |
| 1777474204 | 20° C | 92% | 1014.6 hPa | 0 mm | - | 1013 W/m² | - |
| 1777473902 | 20° C | 92% | 1014.4 hPa | 0 mm | - | 888 W/m² | - |
| 1777473599 | 20° C | 94% | 1014.4 hPa | 0 mm | - | 940 W/m² | - |
| 1777473295 | 20° C | 96% | 1014.7 hPa | 0 mm | - | 267 W/m² | - |
| 1777472990 | 19.44° C | 97% | 1014.7 hPa | 0 mm | - | 255 W/m² | - |
| 1777472688 | 18.89° C | 98% | 1014.6 hPa | 0 mm | - | 254 W/m² | - |
| 1777472384 | 18.89° C | 98% | 1015.1 hPa | 0 mm | - | 328 W/m² | - |
| 1777472081 | 18.33° C | 99% | 1015 hPa | 0 mm | - | 281 W/m² | - |
| 1777471777 | 18.33° C | 99% | 1014.9 hPa | 0 mm | - | 229 W/m² | - |
| 1777471473 | 18.33° C | 99% | 1014.8 hPa | 0 mm | - | 103 W/m² | - |
| 1777471170 | 17.78° C | 99% | 1014.9 hPa | 0 mm | - | 122 W/m² | - |
| 1777470867 | 17.78° C | 99% | 1014.8 hPa | 0 mm | - | 220 W/m² | - |
| 1777470564 | 17.22° C | 99% | 1014.6 hPa | 0 mm | - | 157 W/m² | - |
| 1777470260 | 17.78° C | 99% | 1014.7 hPa | 0 mm | - | 152 W/m² | - |
| 1777469956 | 17.22° C | 99% | 1014.9 hPa | 0 mm | - | 130 W/m² | - |
| 1777469652 | 17.22° C | 99% | 1015 hPa | 0 mm | - | 105 W/m² | - |
| 1777469347 | 17.22° C | 99% | 1015.2 hPa | 0 mm | - | 97 W/m² | - |
| 1777469044 | 17.22° C | 99% | 1015.2 hPa | 0 mm | - | 92 W/m² | - |
| 1777468738 | 17.22° C | 99% | 1015.3 hPa | 0 mm | - | 73 W/m² | - |
| 1777468435 | 17.22° C | 99% | 1015.4 hPa | 0 mm | - | 80 W/m² | - |
| 1777468130 | 17.22° C | 99% | 1015.3 hPa | 0 mm | - | 78 W/m² | - |
| 1777467828 | 16.67° C | 99% | 1015.6 hPa | 0 mm | - | 66 W/m² | - |
| 1777467522 | 16.67° C | 99% | 1015.5 hPa | 0 mm | - | 59 W/m² | - |
| 1777467218 | 16.67° C | 99% | 1015.7 hPa | 0 mm | - | 58 W/m² | - |
* Rain latest hour (hover to see other rain measurements)
** Current wind speed in m/s (hover to see current wind gust speed)